Regional Weather Roundup
Issued by NWS Charleston, WV

Home | Current Version | Previous Version | Graphics & Text | Print | Product List | Glossary On
Versions: 1 2 3 4 5 6 7 8 9 10 11 12 13 14 15 16 17 18 19 20 21 22 23 24 25 26 27 28 29 30 31 32 33 34 35 36 37 38 39 40 41 42 43 44 45 46 47 48 49 50
000
ASUS41 KRLX 271410
RWRRLX
West Virginia Regional Weather Roundup
National Weather Service Charleston WV
1000 AM EDT FRI MAR 27 2015

Note: "fair" indicates few or no clouds below 12,000 feet with no
significant weather and/or obstructions to visibility.

WVZ003-271500-
Northern Panhandle of West Virginia

CITY           SKY/WX    TMP DP  RH WIND       PRES   REMARKS
WHEELING       CLOUDY    34  27  75 NW8       29.87S
$$

WVZ009-271500-
Northwest West Virginia

CITY           SKY/WX    TMP DP  RH WIND       PRES   REMARKS
PARKERSBURG    PTSUNNY   35  26  69 VRB6      29.94S
$$

WVZ006-271500-
Western West Virginia

CITY           SKY/WX    TMP DP  RH WIND       PRES   REMARKS
HUNTINGTON     SUNNY     37  25  61 N9        29.94S
$$

WVZ015-271500-
West Central West Virginia

CITY           SKY/WX    TMP DP  RH WIND       PRES   REMARKS
CHARLESTON     MOSUNNY   36  24  62 NW9       29.93R
$$

WVZ022-031-271500-
North Central West Virginia

CITY           SKY/WX    TMP DP  RH WIND       PRES   REMARKS
CLARKSBURG     PTSUNNY   37  31  78 NW9       29.84S
MORGANTOWN     CLOUDY    38  27  64 NW7       29.85S
$$

WVZ025-035-042-045-271500-
Southern West Virginia

CITY           SKY/WX    TMP DP  RH WIND       PRES   REMARKS
BECKLEY        CLOUDY    33  28  81 NW10      29.84R
LOGAN          CLOUDY    34  27  75 N7        29.88R
BLUEFIELD      CLOUDY    35  30  82 N8        29.81R
LEWISBURG      CLOUDY    37  32  82 NW7       29.83R
$$

WVZ047-271500-
Northern Mountains of West Virginia

CITY           SKY/WX    TMP DP  RH WIND       PRES   REMARKS
ELKINS         CLOUDY    36  30  79 NW3       29.82S
$$

WVZ052-271500-
Eastern Panhandle of West Virginia

CITY           SKY/WX    TMP DP  RH WIND       PRES   REMARKS
MARTINSBURG    CLOUDY    43  31  62 N8        29.82S
PETERSBURG     CLOUDY    40  27  59 CALM      29.83S
$$



USA.gov is the U.S. government's official web portal to all federal, state and local government web resources and services.